Terminal Aerodrome Forecast
Issued by NWS

Home | Current Version | Previous Version | Text Only | Print | Product List | Glossary On
Versions: 1 2 3 4 5 6 7 8 9 10 11 12
000
FTUS46 KHNX 242320
TAFVIS
TAF
KVIS 242320Z 2500/2524 VRB02KT P6SM SKC
     FM250600 13006KT P6SM SCT100
     FM251800 27009KT 5SM HZ SKC=

USA.gov is the U.S. government's official web portal to all federal, state and local government web resources and services.